Lapse_Rate
4.6 7.3 8.9 9.1 6.6 6.5 6.5 6.5 6.5 6.5 6.5 7.5 7.7 7.1 6.8 7.3 6.6 6.5 8.8 8.5 7.5 6.0 3.6 3.0 3.1 3.6 4.3 4.5 4.2 4.4 4.8 4.8 5.3 7.3 7.3 7.0 6.8 6.6 7.2 6.7 6.4 6.7 6.2 6.4 6.2 6.4 5.8 5.3 5.0
7.8 8.5 9.5 8.1 6.5 6.5 6.5 6.5 6.5 6.5 7.1 7.7 7.7 7.5 7.2 6.6 8.2 8.4 8.1 7.4 6.6 5.8 4.1 2.8 3.0 3.1 3.5 3.8 3.5 3.5 4.1 4.7 4.8 5.7 7.8 7.4 7.5 7.7 7.7 7.3 6.9 6.9 6.3 6.4 6.4 5.9 5.5 4.9 4.7
9.6 9.8 8.1 6.5 6.5 6.5 6.5 6.5 6.5 7.1 7.7 7.5 7.2 8.0 7.6 7.2 8.5 7.9 7.6 6.4 6.4 5.1 4.2 3.0 3.1 2.9 3.1 3.3 3.2 3.1 3.3 3.8 4.2 4.2 5.4 7.7 7.5 7.8 6.4 5.1 6.5 6.7 5.7 6.6 6.4 5.8 4.9 4.3 4.4
9.4 9.1 8.5 6.5 6.5 6.5 6.5 6.5 7.1 7.1 7.8 8.2 8.0 7.0 8.6 9.2 8.5 9.4 7.1 5.9 5.3 5.2 4.1 3.3 3.0 3.6 3.0 2.8 2.9 3.1 2.9 2.8 3.2 4.3 4.1 4.6 7.1 7.6 7.5 6.3 7.1 6.8 5.7 5.9 6.3 5.3 4.5 4.2 4.3
9.6 8.4 6.5 6.5 6.5 6.5 6.7 7.5 7.7 6.9 7.3 7.8 7.9 6.9 7.7 9.0 8.2 8.2 6.9 6.7 6.2 5.8 4.3 3.6 4.0 3.3 2.7 2.7 2.5 2.4 2.4 2.3 2.4 2.7 3.7 4.2 4.3 6.5 7.7 7.6 7.5 6.9 6.3 5.5 5.1 5.2 4.9 4.4 4.2
7.9 7.7 6.5 6.5 6.5 6.5 7.1 7.8 7.7 7.4 7.7 7.7 7.6 7.5 8.0 9.4 9.3 9.0 7.2 7.3 6.6 6.1 4.6 5.1 4.0 2.7 2.4 2.4 2.2 2.0 2.0 1.7 2.2 2.3 2.3 3.5 3.6 3.8 6.7 7.3 7.3 7.1 6.6 5.3 4.8 6.2 5.1 4.8 4.3
7.1 6.5 6.5 6.5 6.5 6.5 6.5 8.0 7.3 7.3 7.4 7.6 8.3 6.9 8.3 9.1 9.7 9.9 9.6 9.7 9.6 7.8 5.6 4.9 4.6 4.3 1.9 2.2 2.5 1.8 1.8 1.5 1.4 1.6 2.0 2.1 3.3 3.1 4.3 5.0 6.8 6.8 6.3 5.2 5.9 6.2 6.1 4.4 4.7
8.3 6.9 6.5 6.5 6.5 6.5 7.2 7.7 8.1 7.7 7.4 8.8 8.8 6.8 7.3 9.1 9.8 10.1 10.2 10.3 9.9 9.6 7.9 5.3 5.1 4.5 3.9 2.5 2.1 2.1 1.7 1.5 1.4 1.5 1.2 1.5 2.7 2.6 3.6 4.6 6.0 6.6 6.5 6.2 6.2 6.1 6.5 5.3 5.0
8.5 6.5 6.5 6.5 6.5 6.5 7.6 7.0 8.2 8.7 8.2 8.5 8.7 8.6 9.0 9.6 9.8 9.8 9.7 9.9 10.0 10.1 9.7 8.9 6.1 5.9 5.2 5.4 3.3 2.3 1.3 1.2 1.3 2.4 1.9 0.9 0.8 2.6 2.5 2.5 5.3 6.6 5.9 6.1 6.7 7.0 7.2 5.9 5.0
7.1 6.5 6.5 6.8 7.0 6.5 7.4 7.4 7.6 7.5 7.6 7.7 8.2 9.0 9.3 9.5 9.5 9.3 9.4 9.4 9.7 9.8 10.0 9.7 9.3 6.6 6.3 9.2 5.2 3.4 1.9 0.7 1.9 1.2 1.0 1.9 0.1 0.9 1.4 1.9 2.7 6.3 6.1 6.0 6.4 7.1 6.7 5.5 5.0
7.2 6.5 6.8 7.2 7.7 7.8 7.4 7.4 8.0 7.3 6.6 7.7 7.7 8.3 9.0 9.2 9.3 9.3 9.5 9.7 9.8 10.1 10.2 9.9 9.6 9.2 8.4 9.2 9.1 8.8 6.6 1.7 1.0 1.9 0.3 1.1 1.7 -0.3 0.2 1.3 2.0 6.5 6.9 7.9 8.2 7.7 8.5 5.5 4.7
6.6 7.4 7.5 7.6 7.9 7.6 7.2 7.9 7.4 7.5 7.7 8.6 8.7 8.9 8.9 8.9 9.0 9.3 9.4 9.6 9.8 10.0 10.2 10.1 9.7 9.5 9.4 9.4 9.4 9.4 9.4 5.1 3.6 2.7 0.9 0.1 2.5 0.6 0.0 0.8 1.0 3.5 6.0 9.4 9.6 9.4 9.3 6.0 4.6
6.6 7.3 7.7 7.9 7.8 7.8 7.9 7.3 7.3 7.5 8.4 8.8 8.8 8.7 8.8 8.9 9.1 9.4 9.6 9.8 9.9 9.8 10.0 10.3 9.8 9.6 9.5 9.6 9.3 9.5 9.6 8.5 3.9 2.9 2.8 1.6 1.9 1.5 0.7 0.4 0.9 2.1 4.9 6.4 9.5 9.4 5.8 5.6 4.6
7.6 7.6 7.5 7.7 7.7 7.7 7.1 7.3 7.5 7.8 8.6 8.4 8.5 8.5 8.8 8.9 9.1 9.4 9.5 9.6 9.7 9.9 10.0 10.1 10.0 9.7 9.5 9.6 9.5 9.6 9.6 9.0 5.8 3.8 3.4 3.0 1.7 1.0 0.8 0.4 0.8 1.6 2.9 5.8 8.1 9.0 7.2 5.5 4.8
7.8 6.5 7.0 7.2 7.4 7.1 7.6 6.5 6.5 8.1 8.4 8.1 8.3 8.6 8.7 8.9 9.2 9.2 9.4 9.5 9.7 10.1 10.2 10.1 9.9 9.7 9.7 9.7 9.6 9.7 9.7 9.5 9.6 5.9 4.3 4.0 2.5 1.3 0.5 0.7 0.8 0.9 1.0 2.5 7.5 6.4 5.2 5.1 5.2
6.5 6.5 6.5 6.7 7.1 7.3 7.1 6.5 7.0 8.2 8.1 7.8 8.1 8.4 8.6 8.9 9.1 9.4 9.6 9.8 10.1 10.1 10.0 10.2 9.9 9.8 9.7 9.7 9.7 9.8 9.7 9.7 9.7 9.4 5.5 4.2 3.2 1.9 0.9 1.3 0.7 -0.1 0.4 2.0 5.3 5.8 4.6 5.1 9.4
6.5 6.5 6.5 6.5 7.2 6.8 6.7 6.5 7.1 8.1 7.9 7.8 8.0 8.3 8.5 8.7 9.1 9.4 9.7 9.9 10.0 10.1 10.0 10.1 10.0 10.2 9.8 9.8 9.8 9.8 9.7 9.8 9.7 9.6 7.9 5.4 4.0 2.2 2.2 1.1 0.7 -0.3 0.4 2.2 4.5 5.6 5.7 4.8 7.7
6.5 6.5 6.5 6.5 6.5 6.5 6.5 6.5 6.8 7.7 7.8 7.7 8.1 8.3 8.4 8.6 8.9 9.4 9.6 9.9 10.1 10.2 10.1 10.2 10.3 10.0 9.8 9.9 9.9 9.9 9.9 9.9 9.8 9.7 9.5 6.7 5.0 3.8 2.6 0.9 1.1 0.9 0.3 1.9 3.5 5.3 5.9 5.3 5.5
6.5 6.5 6.5 6.5 6.5 6.5 6.5 6.5 6.5 7.4 7.6 7.6 7.9 8.1 8.3 8.5 9.2 9.5 9.5 9.8 9.9 10.0 9.9 10.0 10.0 10.1 10.4 10.4 10.3 10.2 10.2 10.3 10.3 9.8 9.6 8.5 7.2 4.2 2.7 1.2 1.2 1.4 0.3 0.2 1.8 3.0 5.8 5.4 5.0
6.5 6.5 6.5 6.5 6.5 6.5 6.5 6.5 6.5 7.1 7.3 7.7 7.8 8.0 8.3 8.5 8.9 9.1 9.4 9.7 9.6 9.7 9.8 9.9 10.1 10.1 10.2 10.5 10.5 10.5 10.4 10.4 10.2 9.8 9.7 9.6 7.1 5.9 3.6 1.7 0.8 1.7 0.8 0.5 0.5 2.5 5.1 5.1 4.9
6.5 6.5 6.5 6.5 6.5 6.5 6.5 6.5 6.5 6.8 7.5 7.8 8.1 8.4 8.5 8.5 8.6 8.9 9.1 9.3 9.7 9.6 9.7 9.9 10.0 10.1 10.3 10.0 10.2 10.2 10.2 10.1 10.2 10.3 10.3 9.7 8.9 8.1 4.4 3.0 2.0 1.6 1.6 0.8 0.5 1.7 2.7 5.3 4.6
6.5 6.5 6.5 6.5 6.5 6.5 6.5 6.5 6.5 6.5 6.5 7.0 7.4 7.9 8.2 8.5 8.8 9.0 9.1 9.2 9.5 9.6 9.8 9.9 10.0 10.1 10.2 9.9 10.1 9.9 9.9 9.8 10.1 10.2 10.4 10.0 9.6 8.1 6.2 4.3 3.7 1.5 2.0 2.2 0.6 1.3 1.5 3.1 5.3
6.5 6.5 6.5 6.5 6.5 6.5 6.5 6.5 6.5 6.5 6.5 6.5 7.2 7.7 8.1 8.5 8.7 8.8 9.1 9.4 9.7 9.8 9.7 9.9 10.0 10.1 10.1 10.1 10.1 10.1 9.9 10.1 10.3 10.3 10.0 10.0 9.8 9.4 8.3 5.1 4.0 2.3 3.0 1.7 1.2 0.4 0.4 2.2 5.7
6.8 6.5 6.5 6.5 6.5 6.5 6.5 6.5 6.5 6.5 6.5 6.5 7.3 7.8 8.1 8.4 8.7 9.0 9.2 9.4 9.6 9.9 9.8 9.8 9.9 9.9 10.1 10.1 10.0 9.9 9.8 9.9 9.9 9.9 9.9 10.0 10.1 9.7 8.5 6.6 4.6 3.3 2.4 1.4 0.6 0.4 0.7 1.8 4.1
6.5 6.5 6.5 6.5 6.5 6.5 6.5 6.5 6.5 6.5 6.5 6.8 7.1 7.8 8.2 8.5 8.7 8.8 9.0 9.2 9.3 9.4 9.6 9.8 9.8 9.7 9.9 10.0 10.0 10.0 9.9 9.9 9.7 9.7 9.9 9.8 9.8 9.2 8.6 7.6 6.0 4.3 3.3 1.6 0.5 1.0 0.4 0.7 1.4
6.5 6.5 6.5 6.5 6.5 6.5 6.5 6.5 6.5 6.5 7.3 7.6 7.8 8.0 8.2 8.4 8.7 8.8 8.9 9.2 9.4 9.4 9.5 9.6 9.7 9.6 9.8 9.9 9.9 10.0 10.0 10.2 10.1 9.7 9.6 9.8 9.3 8.9 8.4 7.9 6.9 6.0 4.4 1.3 0.6 1.0 0.3 0.2 0.8
6.5 6.5 6.5 6.5 6.5 6.5 6.5 6.5 6.5 6.5 6.6 7.1 7.4 7.7 7.9 8.3 8.5 8.7 9.1 9.2 9.3 9.4 9.5 9.5 9.6 9.7 9.7 9.9 10.0 10.0 10.1 9.9 9.8 9.6 9.4 9.1 8.8 9.1 8.2 8.3 8.0 7.0 6.0 2.4 1.0 1.1 0.1 0.4 0.9
6.5 6.6 6.5 6.5 6.5 6.5 6.5 6.5 6.5 6.5 6.5 6.6 7.0 7.4 7.9 8.3 8.5 8.7 9.0 9.1 9.4 9.5 9.7 9.6 9.7 9.7 9.8 9.9 10.0 10.1 10.0 10.0 10.0 9.4 8.6 9.1 7.9 8.1 9.1 9.0 8.6 6.8 6.2 5.1 2.2 0.8 0.9 1.2 1.4
6.5 6.5 6.5 6.5 6.5 6.5 6.5 6.5 6.5 6.5 6.5 6.5 7.2 7.6 7.9 8.2 8.4 8.7 9.0 9.2 9.4 9.5 9.6 9.5 9.6 9.7 9.7 9.9 9.9 9.9 9.9 9.9 9.7 9.4 9.0 7.4 7.8 8.0 9.8 9.8 9.4 7.1 5.6 4.4 4.0 1.1 1.3 1.0 2.8
6.5 6.5 6.5 6.5 6.5 6.5 6.5 6.5 6.5 6.6 7.0 7.3 7.4 7.7 8.1 8.4 8.6 8.8 9.0 9.1 9.2 9.4 9.5 9.6 9.6 9.6 9.8 9.9 9.8 9.6 9.6 9.4 9.1 9.2 8.7 7.3 8.7 9.0 9.7 9.7 9.5 7.6 5.2 4.9 4.3 3.0 2.4 2.0 1.7
Wind_Speed
5 2 3 1 4 7 14 8 10 11 6 15 14 21 22 16 7 4 9 12 22 21 26 28 36 35 35 34 33 31 28 26 25 2 9 12 13 15 14 16 15 16 16 16 17 17 20 20 18
4 2 4 4 5 10 7 7 15 12 3 7 10 7 12 7 15 3 9 20 22 21 22 27 34 34 33 33 33 33 32 27 25 22 2 9 10 12 14 14 18 18 16 16 17 20 21 19 19
12 9 6 4 9 11 6 4 7 10 13 8 5 12 5 8 12 9 14 20 21 21 24 25 32 33 32 33 33 33 32 32 27 24 20 4 6 10 15 12 11 16 15 9 15 19 20 19 19
1 6 7 15 21 17 14 9 1 4 9 9 10 11 10 12 5 11 17 20 18 23 23 27 30 29 30 32 32 31 31 31 31 26 23 23 8 6 11 24 20 22 23 14 13 16 17 19 20
6 6 12 18 22 16 15 15 16 14 9 15 6 8 7 5 9 11 14 17 15 20 23 25 28 31 30 30 31 31 30 29 29 30 24 21 18 8 5 8 13 17 20 20 16 17 20 18 18
6 4 13 15 18 15 14 12 13 15 14 8 11 8 7 6 10 9 14 14 17 21 21 25 28 32 30 30 31 30 30 29 27 27 28 21 18 18 7 3 7 14 21 23 21 23 24 21 19
19 13 18 18 15 11 9 5 11 10 9 12 5 6 5 12 11 8 8 13 17 21 22 25 27 28 28 29 30 28 29 29 26 25 26 25 17 18 15 15 7 13 17 21 23 23 24 22 20
11 8 12 6 9 7 5 8 11 8 11 4 5 5 6 11 10 9 7 12 16 20 23 25 27 27 25 23 28 29 27 27 26 25 24 22 19 17 16 21 16 17 16 19 19 21 23 21 19
2 8 12 9 5 9 7 6 9 10 14 14 8 11 7 8 10 11 12 14 15 15 22 25 27 27 28 19 24 23 27 25 24 24 23 18 17 14 14 20 19 16 16 16 18 22 21 20 15
7 12 7 7 10 11 7 7 7 4 9 11 10 8 6 6 10 12 15 16 18 19 20 24 26 28 28 23 23 19 19 24 22 25 24 19 17 15 14 16 21 14 15 17 20 20 20 21 13
7 10 15 14 13 10 12 9 3 7 7 7 6 6 6 8 9 11 13 14 15 16 16 23 24 26 26 24 22 20 17 19 19 22 26 23 16 16 15 13 15 7 14 15 19 18 18 13 10
17 14 12 11 9 5 7 6 8 2 7 5 5 3 4 7 8 10 11 12 13 15 17 21 24 25 25 23 22 20 18 17 18 20 22 22 18 15 13 12 13 11 10 15 19 17 18 15 10
20 15 13 11 8 9 5 5 7 8 5 3 2 1 4 7 8 7 9 10 12 14 15 16 22 24 24 22 22 20 18 18 18 19 17 20 18 14 12 12 12 11 10 12 14 16 9 11 12
15 17 14 9 8 6 4 7 3 6 5 4 3 2 4 6 6 7 8 10 11 12 14 16 19 22 24 21 21 19 19 20 15 17 18 19 19 16 14 11 11 10 12 12 15 13 13 8 11
19 15 9 5 4 3 1 8 3 8 6 6 5 5 5 5 5 6 5 8 9 10 13 14 17 22 22 22 20 17 18 18 16 15 14 19 18 17 17 11 11 11 14 17 15 15 12 7 10
6 2 2 5 1 3 5 7 6 6 7 8 7 7 8 8 7 5 4 6 7 9 12 13 17 20 21 20 19 18 17 17 15 15 16 17 16 18 17 11 10 15 15 12 8 7 6 7 12
2 4 5 5 2 3 4 7 3 6 8 10 10 10 10 11 10 8 7 7 7 8 9 12 14 16 19 20 19 18 17 15 15 15 16 20 18 19 17 12 12 16 12 7 7 6 8 6 8
7 5 1 3 4 5 7 8 1 7 10 11 12 12 12 13 13 11 9 9 9 8 7 10 10 15 19 17 18 16 16 15 15 14 15 18 17 19 17 14 13 14 8 7 5 14 10 9 9
5 5 6 1 4 8 5 10 8 6 10 11 12 13 14 15 14 12 10 10 10 10 7 10 11 12 11 11 11 11 11 10 10 14 16 16 17 19 17 12 13 14 8 9 9 6 14 9 10
5 6 7 1 2 6 10 14 10 7 10 10 12 15 16 16 15 12 12 13 11 9 8 9 12 12 11 10 10 10 10 10 11 14 14 15 17 16 17 14 10 12 8 9 10 7 2 6 10
2 11 10 5 6 7 12 6 3 4 10 12 13 15 16 16 17 16 13 12 12 9 8 8 10 11 11 14 12 11 12 11 8 10 9 16 15 16 16 15 13 11 8 7 8 9 7 2 7
4 9 6 4 4 4 6 5 2 2 6 8 8 11 14 15 15 13 11 13 12 8 7 8 10 11 10 13 10 12 10 11 9 9 9 13 13 15 14 16 14 10 10 8 7 8 7 6 8
5 6 5 4 6 7 4 5 3 2 9 13 12 11 11 13 12 11 12 11 11 8 5 8 8 11 9 9 10 10 12 11 10 9 12 10 12 12 14 15 14 10 9 7 9 10 9 6 7
8 5 6 5 4 4 5 5 3 6 8 12 14 14 13 12 11 12 9 8 9 8 6 7 8 10 9 9 9 11 13 13 10 11 9 9 8 9 15 16 14 13 11 10 8 9 10 8 8
10 9 3 3 1 5 1 5 6 8 8 9 13 15 13 12 11 11 10 9 8 8 7 6 9 9 9 8 9 12 12 12 11 11 10 12 9 8 9 14 9 9 13 12 12 8 9 8 8
6 7 4 5 6 8 2 4 2 5 8 9 11 11 10 10 10 10 8 8 8 6 6 7 9 8 9 8 10 11 11 8 8 9 9 8 8 8 14 12 13 12 14 13 13 6 7 8 7
3 3 3 3 2 4 3 4 10 1 5 6 11 10 9 9 8 8 8 6 6 6 5 7 7 8 7 9 10 11 9 9 9 9 8 8 8 9 12 12 11 14 14 13 13 5 8 9 7
4 2 3 2 5 6 3 5 5 9 11 11 12 10 9 8 7 6 5 5 4 4 5 4 4 6 7 9 10 9 9 8 9 8 10 9 10 10 10 10 10 11 13 12 9 8 7 8 6
4 3 1 3 2 4 6 3 4 4 8 12 12 9 8 8 7 5 4 4 4 3 3 3 3 5 7 9 8 8 7 7 7 7 8 8 9 10 10 10 10 10 12 13 11 10 10 10 8
5 4 4 3 3 3 4 7 3 2 6 9 10 8 6 6 6 5 3 3 3 3 3 4 4 5 6 5 6 6 7 9 9 8 7 8 7 10 11 11 10 11 12 11 11 10 8 9 10
Wind_Direction
276 359 270 249 116 64 60 54 38 27 68 67 63 82 88 48 18 62 324 337 341 338 343 341 358 2 7 9 13 12 13 12 12 66 167 170 180 172 161 141 129 135 136 137 135 140 134 132 123
15 193 59 39 113 99 73 33 49 40 68 110 59 73 48 68 28 37 348 338 347 346 347 349 1 4 7 10 10 14 16 14 15 14 228 182 185 180 161 149 149 143 139 142 144 133 129 128 119
67 39 53 51 49 64 90 39 103 65 73 38 110 47 52 348 32 354 342 339 345 353 353 357 2 4 8 11 11 12 14 17 14 14 20 282 198 189 133 114 175 134 115 157 144 131 130 124 121
311 86 73 77 86 57 66 62 250 84 54 47 121 77 103 42 12 345 353 353 359 0 359 1 5 4 9 12 13 12 12 14 16 10 15 22 338 213 173 176 175 155 157 162 127 130 133 127 127
60 82 95 87 83 83 65 56 54 68 71 44 50 80 81 26 6 351 4 6 4 7 3 4 7 6 10 13 13 11 12 13 12 12 7 14 15 343 183 165 166 157 147 138 141 150 138 135 134
87 106 110 99 100 95 71 50 58 68 64 56 70 100 74 58 16 5 1 13 15 9 6 11 5 9 6 9 12 10 12 10 11 12 7 3 26 23 4 126 171 172 157 152 176 164 150 146 144
83 86 93 109 111 88 46 15 34 57 54 48 56 85 94 37 14 10 13 14 17 15 14 10 9 7 5 6 8 8 8 9 10 10 8 2 13 21 356 330 264 189 179 185 173 167 166 150 151
91 93 115 93 101 85 81 78 45 29 50 91 355 55 58 18 9 5 8 18 20 18 16 13 10 8 8 1 4 6 5 5 8 5 7 6 1 21 357 336 273 225 180 167 170 174 166 160 156
29 103 91 86 78 123 149 103 77 72 83 66 75 69 53 18 4 7 7 12 14 17 16 14 9 9 3 7 2 2 3 2 9 360 3 8 3 360 3 337 315 201 183 181 187 182 171 161 165
70 84 69 79 105 116 119 100 114 132 97 92 90 83 58 26 14 14 11 9 11 11 10 11 12 7 4 4 358 7 0 2 1 356 1 3 2 359 4 343 333 203 188 187 187 174 165 160 181
39 94 108 96 103 107 111 104 90 125 87 58 80 74 47 20 15 13 14 14 12 11 11 8 13 9 7 359 358 355 6 3 357 356 1 352 354 6 3 350 344 238 196 186 186 177 178 165 162
96 95 107 107 108 108 89 107 83 48 93 93 81 47 23 14 16 13 11 13 12 15 13 7 10 9 8 0 359 353 353 3 359 354 1 359 346 0 358 344 332 330 238 209 189 182 192 168 169
94 103 101 104 102 85 105 91 102 116 122 131 96 345 360 358 2 16 5 14 9 11 18 11 9 7 5 3 357 351 351 355 358 357 358 2 346 351 346 333 322 319 302 250 204 182 169 168 164
115 112 111 105 89 97 112 122 224 159 173 183 233 285 329 340 348 347 3 8 6 11 17 12 10 8 2 2 357 349 352 345 3 353 355 354 347 344 345 338 321 325 329 259 234 190 185 171 163
122 109 115 94 87 116 359 188 171 146 191 225 249 267 290 300 308 342 354 345 1 5 10 10 5 9 5 1 354 350 353 343 347 352 345 358 352 349 341 331 332 334 325 307 225 186 174 166 172
117 174 225 83 162 122 240 57 139 178 207 241 255 270 275 277 292 303 313 313 335 351 1 2 3 6 3 1 351 347 351 342 344 347 349 355 350 356 340 329 338 330 319 315 263 179 175 191 195
113 39 40 144 32 303 256 346 110 198 230 259 258 262 269 278 278 279 284 294 318 337 347 354 359 6 356 356 349 344 342 343 344 344 352 348 353 356 347 334 340 334 314 281 258 210 184 193 220
14 9 41 343 54 301 277 272 195 232 243 254 268 272 273 276 279 290 280 287 299 313 335 348 359 359 348 349 348 345 339 340 339 342 354 347 351 347 350 340 341 336 323 312 321 220 199 191 214
24 358 336 321 14 304 271 286 290 235 244 262 272 276 275 277 281 282 275 275 277 290 326 336 350 352 346 346 346 344 340 337 335 342 343 354 345 352 344 345 340 342 328 321 313 295 197 178 182
32 341 7 237 352 284 304 289 281 233 243 264 285 289 290 290 285 273 265 274 276 288 309 325 343 344 340 344 337 340 333 330 328 336 337 349 350 345 347 346 335 337 326 328 333 326 198 210 168
25 359 346 314 323 248 303 249 160 226 251 261 274 281 290 291 293 293 288 269 278 283 297 323 332 333 333 340 333 342 331 333 338 337 340 342 352 348 353 340 325 334 331 324 331 314 329 191 167
310 358 312 279 281 350 352 322 161 226 300 277 286 291 321 325 317 305 286 290 284 279 309 319 326 329 329 332 335 343 336 335 333 331 338 333 348 351 353 347 322 343 332 318 331 319 313 303 185
1 321 290 267 277 300 101 268 109 225 340 354 347 327 326 330 326 316 313 311 302 284 288 310 314 318 334 331 337 336 340 332 329 330 331 341 341 356 356 349 333 360 321 334 334 327 330 302 219
321 277 239 247 261 226 48 327 299 353 321 329 341 336 339 335 326 325 322 309 285 288 295 307 314 314 332 331 336 335 334 331 330 335 332 343 342 6 354 347 351 343 330 342 338 326 327 314 290
330 321 286 252 286 354 19 278 266 302 319 318 324 326 334 336 332 334 327 313 310 305 308 309 317 318 325 326 332 330 332 323 325 337 338 333 346 354 347 347 347 346 330 329 352 332 321 336 315
11 352 18 297 341 324 141 261 336 282 296 301 324 326 326 340 341 335 338 324 320 315 315 320 322 321 329 330 325 327 333 329 324 351 326 337 352 327 347 348 344 343 329 347 336 333 337 329 318
28 1 23 277 211 258 305 256 266 10 325 320 337 331 330 342 344 337 342 345 328 324 322 347 328 323 331 330 323 328 330 332 331 335 327 355 331 346 354 355 346 347 346 352 332 321 1 323 317
306 86 240 129 329 326 299 282 308 358 354 349 347 342 335 331 343 344 337 343 333 327 328 351 330 330 333 335 334 332 326 330 331 344 358 341 353 356 343 356 356 353 357 350 337 345 332 352 330
175 201 185 283 293 315 311 339 208 308 348 340 341 341 333 320 335 338 337 348 330 321 327 343 335 337 343 341 336 335 333 336 341 340 0 352 353 356 352 1 2 2 4 358 353 351 350 1 316
273 269 238 285 106 237 286 275 174 263 329 334 325 333 334 315 324 328 330 338 330 333 336 352 341 343 351 349 357 3 350 349 360 355 10 15 357 7 354 11 13 15 10 3 352 357 3 12 359